sat.trackr.live / text

‹ back to catalog

WILDFIRE 7

NORAD 57761 · 2023-133E

PAYLOAD ACTIVE UNKNOWN

§ Identity

Operator
Country
US
Launch date
2023-09-02
Launch site
AFWTR
Launch vehicle
Mass (kg)
RCS (m²)

External: N2YO · Heavens-Above · Gunter

§ Orbital elements

Epoch: 2026-05-25T02:20:16.318176Z

Period
103.96 min
Inclination
81.0007°
Eccentricity
0.0006394
Mean motion
13.85097923 rev/d
Perigee alt
941.2 km
Apogee alt
950.5 km
Semi-major
7,324.0 km
B*
8.0055e-5
RAAN
30.1059°
Arg perigee
92.9164°
Mean anomaly
267.2724°
Rev number
13,779

§ Raw data

WILDFIRE 71 57761U 23133E   26145.09741109  .00000102  00000+0  80055-4 0  99912 57761  81.0007  30.1059 0006394  92.9164 267.2724 13.85097923137799

JSON: /api/v1/satellites/57761 · /tle

For live sub-satellite position, see the globe view (requires WebGL).

§ Visibility from observer

Set your observer location to see the next 7 days of passes ≥ 10°. The values pass through the URL so the page stays shareable.

No JS? Fill the form by hand. The geolocation button needs JavaScript.